Theta_e
303 301 301 301 301 301 301 301 301 301 302 302 303 305 306 306 308 312 320 315 317 320 322 336 348 346 351 355 349 349 348 352 348 349 355 352 354 352 350 352 352 351 350 349 348
304 302 301 301 301 301 301 301 301 301 301 302 303 304 305 306 312 318 318 317 316 323 326 341 344 340 343 347 350 347 345 346 346 346 348 352 353 354 353 353 353 352 349 348 348
306 302 301 301 301 301 301 301 301 301 301 302 303 304 305 308 320 318 323 325 318 319 328 327 326 333 339 337 336 344 345 343 342 345 346 352 354 352 354 355 353 354 351 349 349
305 303 302 302 301 301 301 301 301 301 301 302 302 304 305 316 313 323 322 322 319 319 323 326 323 321 322 323 326 336 339 340 343 343 342 351 353 354 353 353 350 351 349 349 348
305 304 304 303 302 302 302 301 302 301 302 302 302 305 312 320 319 317 320 321 323 322 329 325 322 320 322 323 327 333 336 341 343 341 338 340 349 355 353 350 349 350 350 349 348
305 304 304 305 304 304 303 303 302 303 303 303 305 312 317 310 314 316 317 318 321 325 326 323 322 321 322 325 327 330 331 332 339 342 340 338 342 345 350 349 353 352 351 350 349
305 304 303 304 305 304 304 304 304 304 304 305 309 317 320 311 316 319 325 321 321 324 324 324 323 324 324 326 327 329 329 329 330 340 341 342 345 353 351 350 354 354 352 351 349
305 304 303 303 303 304 304 305 306 306 308 309 314 320 318 313 316 315 317 320 324 325 326 326 325 322 324 324 325 326 326 327 328 331 341 339 346 351 351 351 352 354 353 351 349
304 304 304 303 302 303 304 306 308 313 312 314 320 321 321 322 323 321 317 318 320 323 324 326 322 321 323 323 321 322 325 326 326 333 343 341 343 342 351 351 352 351 353 353 351
304 304 304 303 303 303 304 309 316 321 323 322 324 322 319 322 328 324 323 318 321 323 323 324 322 322 319 319 323 324 325 324 326 329 341 341 341 342 353 352 353 352 350 350 350
304 304 304 304 304 303 308 313 310 311 322 325 324 322 321 323 325 324 323 320 321 321 321 321 321 325 322 320 321 323 324 325 326 330 340 342 341 342 348 352 353 352 351 350 349
305 305 304 303 304 307 309 310 314 312 309 312 314 319 321 321 325 327 325 321 321 321 319 320 322 321 323 322 321 322 323 324 325 327 340 342 342 341 344 347 350 350 350 350 349
305 305 304 304 304 309 306 308 310 310 307 310 313 314 314 315 318 321 323 321 321 320 321 320 322 323 324 324 323 321 321 323 324 326 343 344 346 344 339 338 343 346 346 347 348
305 304 304 303 305 305 308 310 309 310 309 312 313 313 314 314 315 319 324 323 324 322 322 322 323 323 324 325 323 321 323 323 325 327 329 341 346 349 345 345 343 344 343 345 345
305 304 304 303 304 306 306 308 309 309 319 321 318 316 313 315 317 318 320 323 325 324 322 322 323 323 325 325 324 323 322 325 326 326 327 333 342 344 344 347 345 343 342 343 343
304 304 303 304 304 306 308 309 310 311 317 319 320 316 314 315 317 320 321 323 323 325 324 322 322 323 324 325 325 324 321 322 325 326 328 329 343 340 350 345 345 344 344 342 343
303 303 303 304 305 306 309 308 310 313 317 322 319 316 315 315 316 317 324 325 326 320 323 326 326 323 322 322 322 320 317 319 322 324 329 326 336 340 342 344 344 344 341 342 342
303 303 303 304 305 306 310 307 312 316 316 317 316 317 319 316 316 317 317 326 324 317 317 322 325 322 324 324 321 318 318 320 322 325 326 326 333 335 338 344 344 342 340 341 340
303 304 305 305 307 306 306 312 311 313 315 315 315 317 317 318 316 316 316 318 321 321 319 317 320 321 322 323 324 322 317 318 318 322 324 327 328 328 333 342 344 343 342 342 340
304 305 305 307 307 308 307 312 311 313 314 315 316 315 318 317 317 317 316 318 319 320 319 318 320 320 322 322 322 320 319 320 314 320 322 323 328 330 330 335 339 343 344 343 342
305 302 305 306 304 306 311 310 312 312 313 315 315 316 317 318 318 318 318 317 319 319 319 319 318 321 323 321 324 323 321 318 317 316 321 322 324 324 327 330 338 343 344 344 343
303 303 304 304 302 303 310 310 311 312 312 313 314 316 316 315 317 319 319 318 320 319 319 318 317 319 322 321 323 324 322 317 320 319 319 322 324 328 326 327 337 342 344 344 343
301 300 304 305 304 304 305 310 310 311 311 312 312 312 314 315 318 319 320 320 319 319 319 322 319 322 320 319 320 322 322 321 313 315 320 324 323 322 322 330 338 338 338 340 342
301 304 299 300 303 304 306 309 309 309 310 310 310 313 315 315 315 319 319 320 317 317 323 317 323 320 325 324 321 321 323 321 321 321 321 321 321 321 321 327 329 332 338 336 338
300 301 302 303 304 304 305 307 309 309 308 308 310 311 315 316 317 317 319 318 317 318 316 315 316 318 319 323 323 324 324 324 322 323 322 323 318 318 318 319 323 326 335 336 335
304 304 303 303 302 302 305 307 308 307 309 310 312 311 312 313 314 316 317 313 315 315 314 313 317 318 324 324 324 325 325 325 325 324 322 320 320 318 319 319 325 331 332 334 334
303 304 304 305 303 302 303 304 305 306 308 310 309 310 311 309 310 312 312 311 311 313 314 314 315 317 322 323 324 325 326 325 324 324 323 321 320 320 322 323 324 326 332 334 330
Wind_Speed
23 23 24 25 25 23 23 23 24 24 24 26 25 22 21 24 25 14 9 26 20 25 11 20 15 15 16 10 5 3 3 4 4 2 9 15 17 12 8 20 10 6 14 26 32
25 25 25 25 25 25 25 24 26 25 27 27 26 23 21 22 21 15 30 26 23 18 25 17 10 15 5 7 6 4 3 6 9 3 8 20 23 18 13 19 10 21 22 31 31
27 29 28 28 28 29 29 28 28 27 29 28 25 23 21 15 5 8 11 8 18 26 19 20 19 7 10 6 8 9 10 9 18 13 13 21 22 19 25 15 26 27 26 26 27
29 31 31 31 31 31 32 31 31 29 31 29 25 21 16 2 6 1 3 5 16 21 17 9 6 5 4 8 10 9 17 18 24 5 10 21 20 16 24 13 25 29 31 26 23
32 34 34 33 33 34 34 35 33 33 34 29 23 16 3 2 13 17 5 4 14 19 15 10 8 6 6 6 2 8 9 15 17 14 7 16 19 23 17 21 22 25 26 26 21
34 35 36 35 36 37 37 38 35 36 35 28 17 7 2 9 14 13 12 17 17 18 12 10 8 9 5 8 6 4 8 10 15 18 10 7 10 16 16 26 24 28 25 23 23
35 37 37 35 36 38 40 39 38 38 36 24 9 4 4 20 7 1 4 22 27 23 7 20 21 5 2 8 5 6 7 11 10 22 4 15 7 14 26 29 29 27 24 23 22
37 38 41 38 38 40 40 41 41 37 23 12 6 7 9 13 15 21 18 26 21 20 25 21 22 9 4 7 8 5 2 5 7 10 12 10 13 14 25 28 28 28 23 22 21
39 40 43 44 41 43 44 40 33 11 4 8 9 6 11 8 9 26 26 15 30 30 27 22 7 8 3 4 5 4 6 6 12 12 12 3 6 11 25 27 27 24 25 22 19
39 40 44 46 47 45 45 31 8 5 8 6 3 2 8 6 5 8 18 26 5 7 4 6 3 5 1 4 6 6 4 6 7 4 7 4 6 18 25 24 24 24 22 22 20
40 41 45 49 46 48 32 8 4 2 2 8 7 7 14 6 13 9 16 14 5 3 8 6 4 12 9 7 6 5 6 8 14 5 6 17 15 23 25 23 23 21 20 20 21
40 42 46 51 51 21 10 4 2 12 13 16 23 26 37 7 7 7 18 9 8 11 6 4 12 7 8 7 9 10 12 18 12 7 5 8 22 20 23 27 27 24 21 22 20
40 42 46 51 36 4 25 7 24 30 5 8 15 15 12 18 15 20 6 9 9 9 9 12 8 13 10 11 10 14 15 19 10 6 1 8 3 7 10 9 15 19 23 23 24
39 41 44 52 8 33 13 23 29 20 4 8 6 8 8 9 9 21 14 14 6 18 12 8 14 12 18 14 11 10 12 19 10 2 4 4 4 6 9 9 20 22 21 22 23
38 41 42 42 21 10 17 28 35 2 5 3 5 7 9 11 6 13 25 4 15 9 8 8 17 17 15 16 16 13 9 14 13 9 2 8 2 7 11 12 15 18 21 21 23
39 41 44 28 16 23 19 33 8 4 8 7 5 7 8 5 3 1 11 4 3 8 10 11 8 13 15 13 18 14 6 9 3 9 7 14 13 6 8 20 19 23 22 24 23
39 41 42 27 7 14 23 6 3 5 4 4 5 7 3 8 7 2 20 16 14 7 11 10 17 7 7 9 9 8 7 6 6 7 11 10 7 11 16 17 23 24 16 19 25
40 40 41 36 30 18 9 3 6 5 9 7 10 12 5 4 7 7 7 17 14 5 4 11 12 14 8 17 10 9 13 9 10 4 5 5 8 11 15 23 26 26 16 17 22
37 35 28 24 12 13 3 4 7 6 6 12 11 4 7 8 13 7 14 16 15 18 12 8 12 3 19 11 15 11 7 13 6 3 1 5 7 6 8 18 22 19 15 21 26
31 13 18 14 13 13 2 5 6 3 12 9 3 3 10 13 9 17 5 7 13 23 22 11 4 9 21 14 20 11 7 4 1 12 15 5 6 8 7 10 16 22 23 25 29
11 4 11 14 27 3 6 7 6 21 9 8 14 14 16 11 9 10 10 15 7 9 22 20 8 10 3 11 15 8 10 2 4 6 10 4 15 8 11 9 12 25 31 29 27
6 3 13 36 4 1 5 6 9 16 22 12 10 18 16 16 17 10 12 9 20 18 9 12 14 16 23 10 11 21 13 11 8 9 6 15 24 3 9 10 11 21 25 27 28
2 4 13 7 4 6 9 9 8 11 8 7 5 7 8 5 6 8 8 11 19 14 8 10 6 10 7 8 2 7 14 16 6 4 16 8 6 7 6 5 6 9 9 12 17
2 4 4 3 2 8 8 7 11 10 9 3 5 4 7 2 2 6 12 10 23 19 20 11 7 12 19 21 6 6 12 14 19 13 13 19 6 6 5 4 6 8 16 13 11
1 4 3 4 5 9 9 8 10 10 9 4 4 10 3 4 6 5 4 12 12 6 14 8 6 7 15 19 20 11 11 19 20 23 20 19 10 10 9 9 10 9 11 16 15
2 3 4 5 5 6 4 3 8 12 8 7 5 11 3 3 10 16 11 4 4 7 11 6 5 8 8 16 25 22 19 21 18 21 21 10 8 10 12 9 8 10 12 10 12
6 8 2 5 5 3 3 7 14 17 8 8 14 8 11 13 9 8 12 11 12 6 5 4 4 9 6 7 20 14 31 20 13 13 14 12 10 10 9 10 11 10 10 12 13
Wind_Direction
359 357 354 351 350 346 343 341 339 338 336 334 330 329 326 320 314 302 240 251 237 223 223 177 196 188 185 179 190 273 341 326 266 182 149 153 135 159 135 137 156 204 144 159 160
356 354 351 349 347 344 341 339 337 335 334 331 327 327 328 324 320 265 281 271 238 200 188 167 193 193 196 204 204 169 224 226 199 182 152 159 156 138 137 149 132 116 140 155 158
353 353 350 346 343 342 339 336 335 331 331 328 325 324 328 329 304 249 321 252 194 207 200 202 218 188 219 203 206 198 215 249 264 200 141 155 154 150 152 175 151 150 156 161 163
351 350 347 344 342 339 337 334 332 329 329 327 323 322 326 333 281 180 20 136 169 195 207 217 229 202 229 208 202 208 221 220 242 240 168 177 153 159 169 172 161 157 160 163 168
351 349 346 342 339 337 334 331 326 324 325 323 322 323 341 239 245 239 197 117 185 194 193 188 193 181 226 229 213 210 241 210 234 264 148 163 166 168 181 148 155 155 160 164 169
351 350 346 341 338 334 331 328 323 320 320 317 313 318 197 247 262 273 251 238 220 189 203 180 202 209 281 234 216 249 282 250 222 243 157 147 172 138 169 150 153 161 167 170 173
351 348 345 341 337 332 329 325 320 317 314 305 278 215 241 235 249 208 69 231 215 205 193 210 215 184 193 291 288 243 284 294 209 233 113 126 141 163 160 154 158 171 174 176 182
348 345 343 341 336 332 327 322 317 316 301 276 210 173 245 260 265 258 256 237 223 234 222 224 211 218 206 287 325 345 10 299 279 226 176 124 185 163 160 159 167 171 178 184 185
346 344 344 340 336 333 328 318 321 339 338 140 143 175 266 290 227 244 230 208 225 236 237 227 164 201 274 224 355 9 251 262 303 162 166 127 200 177 168 167 171 175 180 186 186
346 344 343 340 335 334 326 322 4 86 85 115 273 338 263 250 231 231 207 213 174 207 214 204 179 179 76 125 216 221 260 271 248 124 167 207 178 174 175 176 176 182 186 185 177
344 344 343 339 335 334 330 356 4 4 181 253 221 256 291 278 319 230 190 180 184 154 198 228 172 223 219 195 213 228 257 256 265 353 117 184 165 167 175 179 181 184 187 191 198
342 343 342 337 334 338 14 355 218 319 295 247 247 244 247 261 314 301 189 159 157 200 155 243 228 204 200 215 216 232 248 264 297 273 150 213 177 180 175 188 182 183 188 190 196
340 342 342 337 339 48 332 283 338 346 266 271 228 236 230 202 225 255 202 173 170 178 188 208 224 201 205 226 225 228 231 254 238 315 348 140 66 178 189 165 193 195 190 192 190
339 339 342 339 360 331 297 335 335 344 322 274 235 248 175 143 218 223 199 183 174 195 205 219 215 203 212 221 210 235 230 249 255 296 246 238 215 228 217 185 182 192 196 197 196
336 336 338 337 300 304 306 329 334 15 318 219 232 135 153 171 160 209 205 215 192 166 171 218 189 214 210 213 219 239 225 250 243 243 162 272 98 254 177 217 195 194 193 198 200
334 333 333 332 292 292 326 324 330 59 245 291 189 140 126 248 266 35 160 182 170 182 215 203 218 199 214 213 217 227 234 262 240 230 238 240 206 247 176 208 209 198 196 191 195
331 329 321 305 250 308 321 344 75 205 305 248 356 352 271 166 238 143 183 189 204 162 214 217 228 217 164 197 220 185 170 250 256 231 233 219 217 220 210 198 208 205 199 195 194
334 326 314 294 277 285 325 66 210 226 264 29 349 315 208 108 258 211 162 206 211 150 169 213 243 219 214 214 206 192 193 204 213 214 248 225 212 234 212 209 208 211 201 199 194
334 331 301 315 320 222 88 186 210 206 16 353 352 343 4 29 9 332 206 205 211 201 197 182 238 229 216 218 197 232 187 205 192 202 333 217 258 286 219 222 219 216 193 198 194
332 308 283 355 353 152 114 240 236 331 9 351 298 312 0 349 328 2 308 256 209 202 198 213 269 212 230 211 241 189 176 218 309 217 238 259 227 227 216 218 215 201 195 201 197
321 332 290 335 335 136 219 223 269 289 321 1 317 297 296 311 310 303 265 308 300 223 202 210 185 237 169 210 214 204 213 192 181 162 229 227 251 189 232 238 203 203 195 194 192
335 315 289 318 14 275 228 200 255 271 282 285 285 279 281 300 285 268 247 219 321 313 315 269 213 233 233 209 201 225 212 179 206 223 238 230 245 126 196 240 211 199 203 199 198
301 257 312 318 26 350 351 357 24 7 358 344 326 13 14 339 324 344 336 337 12 4 349 335 216 233 282 286 189 199 218 217 130 128 222 214 261 196 218 272 181 175 181 202 207
335 315 316 14 46 11 341 350 335 327 319 19 297 349 360 350 216 300 310 333 342 345 352 329 234 246 238 226 179 196 208 207 214 214 223 233 215 275 265 191 264 263 206 182 191
247 262 299 315 339 333 337 289 2 359 10 346 338 352 57 303 301 276 325 328 326 356 354 11 274 254 262 263 203 192 191 209 212 220 210 232 205 225 239 236 234 233 244 178 174
251 307 326 297 295 337 311 323 355 331 338 312 322 324 271 202 284 310 303 354 224 324 351 332 286 330 283 258 218 211 211 219 214 220 225 205 213 186 224 226 228 200 215 263 215
222 256 241 281 310 338 262 338 311 307 310 280 296 297 288 296 266 264 266 254 246 274 297 269 317 352 278 269 214 225 218 209 209 213 206 208 204 188 202 205 211 229 199 213 212